DW6416 Weather Reports


Display with metric or nautical units.
time (UTC)temp
F
wind
direction
speed
MPH
gust
MPH
rain 1hr
in
rain 24hr
in
rain mn
in
humidity
%
barometer
mb
20181018094129 26 331 0.0 0.0 0.00 0.00 0.00 93 1032.5
20181018093627 26 331 0.0 0.0 0.00 0.00 0.00 93 1032.4
20181018093123 26 331 0.0 0.0 0.00 0.00 0.00 93 1032.4
20181018092619 26 331 0.0 0.0 0.00 0.00 0.00 93 1032.3
20181018092114 26 331 0.0 0.0 0.00 0.00 0.00 93 1032.2
20181018091633 26 331 0.0 0.0 0.00 0.00 0.00 93 1032.1
20181018091128 26 331 0.0 0.0 0.00 0.00 0.00 93 1032.1
20181018090622 26 331 0.0 0.0 0.00 0.00 0.00 93 1032.0
20181018090114 26 331 0.0 0.0 0.00 0.00 0.00 92 1031.9
20181018085629 26 331 0.0 0.0 0.00 0.00 0.00 92 1031.8
20181018085125 26 331 0.0 0.0 0.00 0.00 0.00 92 1031.8
20181018084621 26 331 0.0 0.0 0.00 0.00 0.00 92 1031.7
20181018084117 26 331 0.0 0.0 0.00 0.00 0.00 92 1031.7
20181018083632 26 331 0.0 0.0 0.00 0.00 0.00 92 1031.7
20181018083128 27 331 0.0 0.0 0.00 0.00 0.00 92 1031.6
20181018082624 27 331 0.0 0.0 0.00 0.00 0.00 91 1031.5
20181018082123 27 331 0.0 0.0 0.00 0.00 0.00 91 1031.5
20181018081618 27 331 0.0 0.0 0.00 0.00 0.00 91 1031.5
20181018081132 27 331 0.0 0.0 0.00 0.00 0.00 91 1031.5
20181018080629 27 331 0.0 0.0 0.00 0.00 0.00 91 1031.5
20181018080116 27 331 0.0 0.0 0.00 0.00 0.00 90 1031.3
20181018075631 27 331 0.0 0.0 0.00 0.00 0.00 90 1031.4
20181018075127 27 331 0.0 0.0 0.00 0.00 0.00 90 1031.4
20181018074623 27 331 0.0 0.0 0.00 0.00 0.00 90 1031.3
20181018074119 28 331 0.0 0.0 0.00 0.00 0.00 90 1031.4
20181018073619 28 331 0.0 0.0 0.00 0.00 0.00 90 1031.4
20181018073116 28 331 0.0 0.0 0.00 0.00 0.00 90 1031.4
20181018072632 28 331 0.0 0.0 0.00 0.00 0.00 90 1031.4
20181018072127 28 331 0.0 0.0 0.00 0.00 0.00 90 1031.4
20181018071623 28 331 0.0 0.0 0.00 0.00 0.00 90 1031.5
20181018071119 28 331 0.0 0.0 0.00 0.00 0.00 90 1031.3
20181018070616 28 331 0.0 0.0 0.00 0.00 0.00 89 1031.3
20181018070123 28 331 0.0 0.0 0.00 0.00 0.00 88 1031.3
20181018065617 28 331 0.0 0.0 0.00 0.00 0.00 88 1031.2
20181018065132 28 331 0.0 0.0 0.00 0.00 0.00 87 1031.1
20181018064627 29 331 0.0 0.0 0.00 0.00 0.00 86 1031.0
20181018064126 29 331 0.0 0.0 0.00 0.00 0.00 86 1031.1
20181018063620 29 331 0.0 0.0 0.00 0.00 0.00 86 1031.1
20181018063116 29 331 0.0 0.0 0.00 0.00 0.00 86 1030.9
20181018062630 29 331 0.0 0.0 0.00 0.00 0.00 85 1030.8
20181018062124 29 331 0.0 0.0 0.00 0.00 0.00 85 1030.7
20181018061618 30 331 0.0 0.0 0.00 0.00 0.00 84 1030.7
20181018061117 30 331 0.0 0.0 0.00 0.00 0.00 84 1030.7
20181018060614 30 331 0.0 0.0 0.00 0.00 0.00 83 1030.7
20181018060123 30 331 0.0 0.0 0.00 0.00 0.00 83 1030.8
20181018055618 31 331 0.0 0.0 0.00 0.00 0.00 83 1030.7
20181018055134 31 331 0.0 0.0 0.00 0.00 0.00 83 1030.7
20181018054629 31 331 0.0 0.0 0.00 0.00 0.00 83 1030.6
20181018054125 32 331 0.0 0.0 0.00 0.00 0.00 83 1030.5
20181018053621 32 331 0.0 0.0 0.00 0.00 0.00 83 1030.6
20181018053117 32 331 0.0 0.0 0.00 0.00 0.00 82 1030.5
20181018052631 33 331 0.0 0.0 0.00 0.00 0.00 82 1030.5
20181018052128 33 331 0.0 0.0 0.00 0.00 0.00 81 1030.5
20181018051623 34 331 0.0 0.0 0.00 0.00 0.00 81 1030.5
20181018051120 34 331 0.0 0.0 0.00 0.00 0.00 80 1030.4
20181018050616 34 331 0.0 0.0 0.00 0.00 0.00 80 1030.4
20181018050124 34 331 0.0 0.0 0.00 0.00 0.00 80 1030.4
20181018045621 35 331 0.0 0.0 0.00 0.00 0.00 80 1030.5
20181018045117 35 331 0.0 0.0 0.00 0.00 0.00 79 1030.5
20181018044617 35 331 0.0 0.0 0.00 0.00 0.00 78 1030.3
20181018044132 36 331 0.0 0.0 0.00 0.00 0.00 78 1030.3
20181018043627 36 331 0.0 0.0 0.00 0.00 0.00 78 1030.4
20181018043123 36 331 0.0 0.0 0.00 0.00 0.00 77 1030.4
20181018042618 36 331 0.0 0.0 0.00 0.00 0.00 77 1030.4
20181018042131 37 331 0.0 0.0 0.00 0.00 0.00 77 1030.3
20181018041626 37 322 0.0 0.0 0.00 0.00 0.00 76 1030.3
20181018041123 37 305 0.0 0.0 0.00 0.00 0.00 76 1030.4
20181018040619 38 305 0.0 0.0 0.00 0.00 0.00 75 1030.4
20181018040127 38 290 0.0 0.0 0.00 0.00 0.00 75 1030.3
20181018035620 38 291 0.0 5.0 0.00 0.00 0.00 75 1030.4
20181018035114 38 291 1.0 5.0 0.00 0.00 0.00 75 1030.4
20181018034628 39 324 0.0 5.0 0.00 0.00 0.00 74 1030.4
20181018034121 39 318 1.0 6.0 0.00 0.00 0.00 74 1030.5
20181018033620 39 281 1.0 6.0 0.00 0.00 0.00 73 1030.4
20181018033115 39 322 1.0 8.0 0.00 0.00 0.00 73 1030.2
20181018032632 39 345 1.0 12.0 0.00 0.00 0.00 73 1030.1
20181018032128 40 337 2.0 12.0 0.00 0.00 0.00 73 1030.0
20181018031626 40 320 2.0 7.0 0.00 0.00 0.00 73 1030.0
20181018031123 40 334 1.0 8.0 0.00 0.00 0.00 73 1030.0
20181018030622 40 319 2.0 8.0 0.00 0.00 0.00 72 1029.8
20181018030131 41 350 0.0 1.0 0.00 0.00 0.00 73 1029.8
20181018025628 41 317 0.0 8.0 0.00 0.00 0.00 73 1029.7
20181018025124 41 312 4.0 11.0 0.00 0.00 0.00 73 1029.6
20181018024618 41 316 1.0 11.0 0.00 0.00 0.00 73 1029.5
20181018024133 41 322 1.0 8.0 0.00 0.00 0.00 73 1029.5
20181018023628 41 327 2.0 8.0 0.00 0.00 0.00 73 1029.4
20181018023122 41 339 2.0 10.0 0.00 0.00 0.00 73 1029.4
20181018022618 42 292 3.0 10.0 0.00 0.00 0.00 73 1029.4
20181018022133 42 263 5.0 8.0 0.00 0.00 0.00 73 1029.3
20181018021628 42 270 0.0 1.0 0.00 0.00 0.00 73 1029.2
20181018021124 43 329 0.0 6.0 0.00 0.00 0.00 73 1029.1
20181018020616 43 288 0.0 8.0 0.00 0.00 0.00 72 1029.0
20181018020123 43 6 2.0 10.0 0.00 0.00 0.00 71 1029.0
20181018015618 43 355 3.0 10.0 0.00 0.00 0.00 71 1028.8
20181018015118 43 295 4.0 10.0 0.00 0.00 0.00 71 1028.7
20181018014616 43 343 2.0 12.0 0.00 0.00 0.00 71 1028.5
20181018014114 43 304 5.0 13.0 0.00 0.00 0.00 72 1028.4
20181018013631 43 334 1.0 9.0 0.00 0.00 0.00 72 1028.3
20181018013129 43 359 4.0 9.0 0.00 0.00 0.00 73 1028.1
20181018012625 42 268 3.0 8.0 0.00 0.00 0.00 73 1028.0
20181018012122 42 289 0.0 0.0 0.00 0.00 0.00 73 1027.8
20181018011617 42 331 0.0 0.0 0.00 0.00 0.00 74 1027.8
20181018011134 42 313 0.0 0.0 0.00 0.00 0.00 74 1027.8
20181018010629 42 287 0.0 0.0 0.00 0.00 0.00 74 1027.6
20181018010115 42 293 0.0 0.0 0.00 0.00 0.00 74 1027.5
20181018005630 42 275 0.0 0.0 0.00 0.00 0.00 73 1027.4
20181018005126 42 334 0.0 0.0 0.00 0.00 0.00 72 1027.4
20181018004622 42 301 0.0 0.0 0.00 0.00 0.00 72 1027.3
20181018004118 42 301 0.0 0.0 0.00 0.00 0.00 72 1027.3
20181018003617 43 301 0.0 0.0 0.00 0.00 0.00 70 1027.1
20181018003116 43 306 0.0 0.0 0.00 0.00 0.00 70 1027.0
20181018002613 43 307 0.0 0.0 0.00 0.00 0.00 69 1027.0
20181018002132 43 306 0.0 0.0 0.00 0.00 0.00 69 1026.9
20181018001627 44 307 0.0 0.0 0.00 0.00 0.00 68 1026.8
20181018001123 44 299 0.0 0.0 0.00 0.00 0.00 67 1026.7
20181018000620 44 299 0.0 0.0 0.00 0.00 0.00 67 1026.6
20181018000127 44 320 0.0 0.0 0.00 0.00 0.00 66 1026.5
20181017235622 44 275 0.0 0.0 0.00 0.00 0.00 66 1026.4
20181017235117 45 318 0.0 0.0 0.00 0.00 0.00 66 1026.3
20181017234633 45 304 0.0 0.0 0.00 0.00 0.00 65 1026.2
20181017234129 45 297 0.0 0.0 0.00 0.00 0.00 65 1026.2
20181017233615 46 302 0.0 0.0 0.00 0.00 0.00 64 1026.1
20181017233130 46 295 0.0 6.0 0.00 0.00 0.00 63 1026.0
20181017232624 46 295 1.0 7.0 0.00 0.00 0.00 63 1025.9
20181017232119 47 295 1.0 8.0 0.00 0.00 0.00 62 1025.8
20181017231613 47 335 4.0 8.0 0.00 0.00 0.00 62 1025.7
20181017231130 47 289 4.0 9.0 0.00 0.00 0.00 62 1025.6
20181017230627 48 262 3.0 10.0 0.00 0.00 0.00 62 1025.5
20181017230118 48 342 4.0 10.0 0.00 0.00 0.00 64 1025.4
20181017225633 48 263 4.0 13.0 0.00 0.00 0.00 65 1025.2
20181017225128 49 274 5.0 13.0 0.00 0.00 0.00 64 1025.1
20181017224623 49 254 5.0 14.0 0.00 0.00 0.00 64 1025.0
20181017224117 49 263 5.0 14.0 0.00 0.00 0.00 63 1024.9
20181017223634 50 285 7.0 13.0 0.00 0.00 0.00 62 1024.8
20181017223128 50 272 3.0 15.0 0.00 0.00 0.00 62 1024.7
20181017222621 50 276 5.0 15.0 0.00 0.00 0.00 63 1024.6
20181017222116 51 274 5.0 8.0 0.00 0.00 0.00 63 1024.4
20181017221631 51 270 5.0 11.0 0.00 0.00 0.00 63 1024.3
20181017221126 51 266 5.0 12.0 0.00 0.00 0.00 61 1024.3
20181017220620 51 274 4.0 15.0 0.00 0.00 0.00 60 1024.1
20181017220128 51 263 8.0 15.0 0.00 0.00 0.00 59 1024.0
20181017215622 52 277 7.0 16.0 0.00 0.00 0.00 59 1023.9
20181017215117 52 277 7.0 16.0 0.00 0.00 0.00 59 1023.8
20181017214632 52 272 1.0 11.0 0.00 0.00 0.00 59 1023.7
20181017214129 53 343 3.0 11.0 0.00 0.00 0.00 58 1023.6
20181017213625 53 272 5.0 12.0 0.00 0.00 0.00 58 1023.6
20181017213127 53 322 6.0 14.0 0.00 0.00 0.00 58 1023.4
20181017212620 53 8 3.0 14.0 0.00 0.00 0.00 58 1023.4
20181017212135 54 297 6.0 15.0 0.00 0.00 0.00 56 1023.4
20181017211629 54 287 8.0 15.0 0.00 0.00 0.00 54 1023.2
20181017211124 54 270 8.0 16.0 0.00 0.00 0.00 53 1023.3
20181017210619 55 269 10.0 16.0 0.00 0.00 0.00 52 1023.3
20181017210126 55 274 6.0 18.0 0.00 0.00 0.00 54 1023.2
20181017205624 55 277 10.0 18.0 0.00 0.00 0.00 52 1023.1
20181017205118 55 278 10.0 17.0 0.00 0.00 0.00 54 1023.0
20181017204633 55 283 9.0 21.0 0.00 0.00 0.00 54 1023.0
20181017204127 55 329 10.0 21.0 0.00 0.00 0.00 53 1023.0
20181017203622 54 269 10.0 22.0 0.00 0.00 0.00 54 1022.9
20181017203117 54 263 10.0 22.0 0.00 0.00 0.00 53 1022.9
20181017202634 55 272 11.0 21.0 0.00 0.00 0.00 53 1022.9
20181017202129 55 273 10.0 23.0 0.00 0.00 0.00 52 1022.8
20181017201622 55 279 11.0 21.0 0.00 0.00 0.00 54 1022.7
20181017201118 54 254 7.0 16.0 0.00 0.00 0.00 56 1022.7
20181017200616 54 285 7.0 15.0 0.00 0.00 0.00 55 1022.7
20181017200123 54 272 7.0 16.0 0.00 0.00 0.00 54 1022.6
20181017195617 54 275 9.0 16.0 0.00 0.00 0.00 54 1022.4
20181017195132 54 293 8.0 16.0 0.00 0.00 0.00 55 1022.4
20181017194629 53 270 12.0 16.0 0.00 0.00 0.00 56 1022.4
20181017194123 53 272 11.0 17.0 0.00 0.00 0.00 55 1022.2
20181017193621 53 272 8.0 17.0 0.00 0.00 0.00 54 1022.1
20181017193116 53 285 8.0 19.0 0.00 0.00 0.00 55 1022.1
20181017192633 53 264 8.0 19.0 0.00 0.00 0.00 54 1022.0
20181017192127 53 276 11.0 18.0 0.00 0.00 0.00 58 1021.9
20181017191621 53 278 10.0 18.0 0.00 0.00 0.00 55 1021.9
20181017191114 53 285 10.0 16.0 0.00 0.00 0.00 58 1022.0
20181017190632 53 283 9.0 16.0 0.00 0.00 0.00 58 1021.8
20181017190117 53 274 5.0 18.0 0.00 0.00 0.00 56 1021.8
20181017185635 53 279 7.0 18.0 0.00 0.00 0.00 56 1021.8
20181017185130 53 286 8.0 22.0 0.00 0.00 0.00 56 1021.7
20181017184627 54 271 9.0 22.0 0.00 0.00 0.00 57 1021.8
20181017184123 54 279 8.0 15.0 0.00 0.00 0.00 58 1021.7
20181017183622 54 320 7.0 17.0 0.00 0.00 0.00 58 1021.6
20181017183117 53 289 9.0 17.0 0.00 0.00 0.00 57 1021.7
20181017182632 54 277 9.0 16.0 0.00 0.00 0.00 56 1021.6
20181017182129 54 302 9.0 16.0 0.00 0.00 0.00 55 1021.5
20181017181622 55 304 7.0 18.0 0.00 0.00 0.00 54 1021.5
20181017181118 56 275 6.0 18.0 0.00 0.00 0.00 53 1021.5
20181017180633 56 287 6.0 19.0 0.00 0.00 0.00 55 1021.5
20181017180121 56 272 14.0 19.0 0.00 0.00 0.00 52 1021.5
20181017175615 56 272 9.0 19.0 0.00 0.00 0.00 53 1021.5
20181017175132 56 303 13.0 19.0 0.00 0.00 0.00 55 1021.5
20181017174628 55 280 9.0 16.0 0.00 0.00 0.00 53 1021.5
20181017174127 56 320 6.0 16.0 0.00 0.00 0.00 51 1021.6
20181017173620 57 277 8.0 23.0 0.00 0.00 0.00 50 1021.6
20181017173117 57 318 11.0 23.0 0.00 0.00 0.00 53 1021.6
20181017172632 56 270 6.0 20.0 0.00 0.00 0.00 55 1021.5
20181017172127 56 301 9.0 20.0 0.00 0.00 0.00 53 1021.7
20181017171622 56 295 12.0 19.0 0.00 0.00 0.00 52 1021.7
20181017171123 56 274 9.0 17.0 0.00 0.00 0.00 53 1021.6
20181017170617 56 295 9.0 20.0 0.00 0.00 0.00 52 1021.5
20181017170124 56 258 13.0 20.0 0.00 0.00 0.00 54 1021.5
20181017165618 56 268 12.0 19.0 0.00 0.03 0.00 57 1021.3
20181017165133 55 267 9.0 19.0 0.00 0.03 0.00 55 1021.4
20181017164628 55 260 11.0 22.0 0.00 0.03 0.00 56 1021.3
20181017164123 55 270 12.0 22.0 0.00 0.03 0.00 55 1021.2
20181017163618 54 272 9.0 17.0 0.00 0.03 0.00 55 1021.1
20181017163131 54 270 11.0 16.0 0.00 0.03 0.00 56 1021.1
20181017162628 54 285 9.0 23.0 0.00 0.03 0.00 58 1021.0
20181017162122 54 283 10.0 23.0 0.00 0.03 0.00 57 1020.9
20181017161617 54 264 13.0 22.0 0.00 0.03 0.00 56 1020.9
20181017161131 54 270 12.0 21.0 0.00 0.03 0.00 57 1020.9
20181017160629 54 273 12.0 21.0 0.00 0.03 0.00 59 1021.0
20181017160119 53 272 11.0 22.0 0.00 0.03 0.00 57 1021.0
20181017155635 53 265 11.0 22.0 0.00 0.10 0.00 57 1021.0
20181017155129 53 318 11.0 20.0 0.00 0.10 0.00 56 1021.0
20181017154627 53 279 8.0 20.0 0.00 0.10 0.00 59 1020.9
20181017154121 53 269 11.0 20.0 0.00 0.10 0.00 56 1020.8
20181017153616 52 295 10.0 19.0 0.00 0.10 0.00 57 1020.9
20181017153130 52 277 11.0 24.0 0.00 0.10 0.00 57 1020.9
20181017152627 52 280 8.0 18.0 0.00 0.10 0.00 60 1020.9
20181017152121 52 277 5.0 20.0 0.00 0.10 0.00 61 1020.9
20181017151619 52 315 8.0 20.0 0.00 0.10 0.00 61 1020.8
20181017151135 51 270 11.0 22.0 0.00 0.10 0.00 63 1020.8
20181017150629 51 285 13.0 23.0 0.00 0.10 0.00 62 1020.9
20181017150136 51 273 11.0 23.0 0.00 0.10 0.00 64 1020.9
20181017145630 51 267 9.0 21.0 0.00 0.11 0.00 66 1021.0
20181017145125 50 285 6.0 15.0 0.00 0.11 0.00 70 1020.9
20181017144620 50 254 9.0 15.0 0.00 0.11 0.00 72 1020.9
20181017144135 50 259 7.0 16.0 0.00 0.11 0.00 72 1020.9
20181017143629 49 265 10.0 16.0 0.00 0.11 0.00 72 1020.9
20181017143128 49 256 9.0 15.0 0.00 0.11 0.00 72 1021.0
20181017142622 49 254 10.0 15.0 0.00 0.11 0.00 73 1020.8
20181017142118 49 265 7.0 14.0 0.00 0.11 0.00 74 1020.8
20181017141633 48 258 10.0 14.0 0.00 0.11 0.00 74 1020.8
20181017141130 48 259 7.0 14.0 0.00 0.11 0.00 75 1020.8
20181017140625 48 255 9.0 20.0 0.00 0.11 0.00 75 1020.7
20181017140130 48 251 10.0 20.0 0.00 0.11 0.00 76 1020.7
20181017135627 47 253 6.0 18.0 0.00 0.11 0.00 77 1020.7
20181017135121 47 285 9.0 15.0 0.00 0.11 0.00 78 1020.6
20181017134622 46 254 8.0 15.0 0.00 0.11 0.00 79 1020.5
20181017134117 46 252 9.0 13.0 0.00 0.11 0.00 80 1020.6
20181017133632 46 252 6.0 11.0 0.00 0.11 0.00 81 1020.6
20181017133129 45 265 5.0 11.0 0.00 0.11 0.00 82 1020.6
20181017132624 45 254 6.0 9.0 0.00 0.11 0.00 83 1020.5
20181017132119 44 256 5.0 11.0 0.00 0.11 0.00 84 1020.6
20181017131634 44 250 7.0 12.0 0.00 0.11 0.00 84 1020.6
20181017131128 43 260 8.0 12.0 0.00 0.11 0.00 85 1020.6
20181017130623 43 260 7.0 10.0 0.00 0.11 0.00 85 1020.4
20181017130133 43 264 5.0 10.0 0.00 0.11 0.00 84 1020.3
20181017125631 43 254 5.0 9.0 0.00 0.11 0.00 85 1020.3
20181017125127 42 254 6.0 11.0 0.00 0.11 0.00 85 1020.2
20181017124622 42 254 4.0 9.0 0.00 0.11 0.00 84 1020.1
20181017124117 42 255 5.0 10.0 0.00 0.11 0.00 84 1020.0
20181017123631 42 250 5.0 10.0 0.00 0.11 0.00 85 1019.9
20181017123129 42 252 3.0 6.0 0.00 0.11 0.00 86 1019.8
20181017122623 41 251 2.0 6.0 0.00 0.11 0.00 87 1019.8
20181017122122 41 256 1.0 5.0 0.00 0.11 0.00 87 1019.7
20181017121618 40 249 1.0 5.0 0.00 0.11 0.00 88 1019.7
20181017121133 40 235 1.0 5.0 0.00 0.11 0.00 88 1019.6
20181017120628 40 239 0.0 6.0 0.00 0.11 0.00 88 1019.5
20181017120136 39 243 1.0 6.0 0.00 0.11 0.00 88 1019.5
20181017115630 39 260 1.0 6.0 0.00 0.11 0.00 88 1019.4
20181017115130 39 247 1.0 6.0 0.00 0.11 0.00 88 1019.4
20181017114623 39 233 0.0 3.0 0.00 0.11 0.00 88 1019.3
20181017114120 39 251 0.0 3.0 0.00 0.11 0.00 88 1019.2
20181017113635 39 251 0.0 4.0 0.00 0.11 0.00 88 1019.2
20181017113130 39 256 0.0 5.0 0.00 0.11 0.00 88 1019.2
20181017112625 39 245 1.0 5.0 0.00 0.11 0.00 87 1019.4
20181017112120 39 243 0.0 6.0 0.00 0.11 0.00 87 1019.3
20181017111635 39 250 0.0 6.0 0.00 0.11 0.00 87 1019.4
20181017111128 39 252 1.0 5.0 0.00 0.11 0.00 87 1019.4
20181017110622 39 248 0.0 5.0 0.00 0.11 0.00 87 1019.3
20181017110128 39 254 1.0 5.0 0.00 0.11 0.00 87 1019.3
20181017105623 39 247 1.0 7.0 0.00 0.11 0.00 88 1019.2
20181017105122 39 225 1.0 7.0 0.00 0.11 0.00 87 1019.2
20181017104636 39 235 0.0 4.0 0.00 0.11 0.00 87 1019.3
20181017104131 39 243 0.0 4.0 0.00 0.11 0.00 87 1019.4
20181017103628 39 247 0.0 3.0 0.00 0.11 0.00 87 1019.4
20181017103122 39 245 0.0 3.0 0.00 0.11 0.00 86 1019.3
20181017102617 39 243 0.0 3.0 0.00 0.11 0.00 86 1019.4
20181017102132 40 244 0.0 3.0 0.00 0.11 0.00 86 1019.3
20181017101627 40 237 0.0 1.0 0.00 0.11 0.00 86 1019.3
20181017101122 40 243 0.0 2.0 0.00 0.11 0.00 86 1019.3
20181017100637 40 243 0.0 2.0 0.00 0.11 0.00 86 1019.4
20181017100122 40 229 0.0 3.0 0.00 0.11 0.00 86 1019.3
20181017095637 40 247 0.0 2.0 0.00 0.11 0.00 86 1019.2
20181017095131 40 253 0.0 5.0 0.00 0.11 0.00 85 1019.2
20181017094626 40 257 0.0 5.0 0.00 0.11 0.00 85 1019.1